Location: Cumbre Roja
(10.2766°N, 67.0675°W)
Time: 22:48:08
(UTC+00:00)

Cosmos 1356 Rocket - Pass Details

Date: 18 November 2025
Orbit: 517 x 558 km, 81.2° (Epoch: 14 December)

Event Time Altitude Azimuth Distance (km) Brightness Sun altitude
Rises 23:18:58 0° 178° (S) 2,628 7.0 -18.7°
Reaches altitude 10° 23:21:06 10° 175° (S) 1,744 6.0 -19.2°
Maximum altitude 23:24:52 59° 95° (E) 602 3.1 -20.1°
Enters shadow 23:24:54 59° 93° (E) 602 3.1 -20.1°
